Location: Unspecified
(0.0000°N, 0.0000°E)
Time: 21:12:10
(UTC+00:00)

ISS - Pass Details

Date: 14 July 2016
Orbit: 401 x 408 km, 51.6° (Epoch: 22 October)

Event Time Altitude Azimuth Distance (km) Brightness Sun altitude
Rises 11:07:18 0° 305° (NW) 2,310 0.0 64.1°
Reaches altitude 10° 11:09:35 10° 291° (WNW) 1,460 -0.9 64.4°
Maximum altitude 11:12:20 25° 234° (SW) 877 -2.1 64.8°
Drops below altitude 10° 11:15:07 10° 177° (S) 1,484 -1.1 65.1°
Sets 11:17:28 0° 163° (SSE) 2,359 -0.1 65.4°
